Home   Weather   New York   Past weeks

Flag for USA Past Weather in New York, New York, USA — Yesterday and Last 2 Weeks

Now
58 °F

Passing clouds.


Feels Like: 56 °F
Forecast: 50 / 63 °F
Wind: 9 mph from Southeast

Location: New York City - Central Park

Current Time: Mar 25, 2017 at 3:37:01 pm

Latest Report: Mar 25, 2017 at 2:51 pm


Visibility: 10 mi

Pressure: 30.17 "Hg

Humidity: 54%

Dew Point: 41 °F

Location of New YorkLocation

Past Weather in New York — Graph

°F

New York Temperature Yesterday

Maximum temperature yesterday: 56 °F (at 5:51 pm)
Minimum temperature yesterday: 37 °F (at 1:51 am)
Average temperature yesterday: 46 °F

High & Low Weather Summary for the Past Weeks

 TemperatureHumidityPressure
High61 °F (Mar 25, 12:51 pm)97% (Mar 18, 5:51 pm)30.60 "Hg (Mar 18, 5:51 pm)
Low17 °F (Mar 11, 6:51 am)15% (Mar 23, 4:51 pm)29.16 "Hg (Mar 14, 3:08 pm)
Average35 °F48%30.09 "Hg
* Reported Mar 10 12:20 pm — Mar 25 1:51 pm, New York, Weather by CustomWeather, © 2017

Note: Actual official high and low records may vary slightly from our data, if they occured in-between our weather recording intervals... More about our weather records

Advertising

New York Weather History for the Previous 24 Hours

Scroll right to see more
 ConditionsComfort  
Time TempWeatherWind HumidityBarometerVisibility
1:51 pm
Sat, Mar 25
60 °FPassing clouds.6 mph46%30.18 "Hg9 mi
12:51 pm61 °FSunny.6 mph42%30.16 "Hg9 mi
11:51 am58 °FSunny.No wind47%30.16 "Hg8 mi
10:51 am58 °FSunny.5 mph50%30.14 "Hg10 mi
9:51 am57 °FScattered clouds.No wind51%30.15 "Hg10 mi
8:51 am55 °FPassing clouds.No wind53%30.15 "Hg10 mi
7:51 am52 °FSunny.No wind59%30.14 "Hg10 mi
6:51 am53 °FSunny.6 mph56%30.11 "Hg10 mi
5:51 am54 °FClear.8 mph53%30.07 "Hg10 mi
4:51 am53 °FClear.9 mph52%30.06 "Hg10 mi
3:51 am52 °FClear.12 mph53%30.06 "Hg10 mi
2:51 am53 °FClear.9 mph48%30.07 "Hg10 mi
1:51 am54 °FClear.13 mph47%30.08 "Hg10 mi
12:51 am53 °FClear.12 mph47%30.10 "Hg10 mi
11:51 pm
Fri, Mar 24
54 °FClear.6 mph43%30.12 "Hg10 mi
10:51 pm53 °FClear.5 mph45%30.13 "Hg10 mi
9:51 pm54 °FClear.5 mph43%30.15 "Hg10 mi
8:51 pm55 °FClear.10 mph45%30.14 "Hg10 mi
7:51 pm55 °FClear.No wind45%30.11 "Hg10 mi
6:51 pm56 °FSunny.N/A44%30.11 "Hg10 mi
5:51 pm56 °FOvercast.N/A40%30.12 "Hg10 mi
4:51 pm54 °FOvercast.3 mph41%30.14 "Hg10 mi
3:51 pm51 °FPassing clouds.N/A42%30.17 "Hg10 mi
Weather by CustomWeather, © 2017

See weather overviewHow to use our weather pages